DG4CB-13 Weather Reports


time (UTC)temp
C
wind
direction
speed
KPH
gust
KPH
rain 1hr
cm
rain 24hr
cm
rain mn
cm
humidity
%
barometer
mb
20260503054959 10 0.0 0.0 0.00 0.00 0.00 75 1012.8
20260503054000 10 0.0 0.0 0.00 0.00 0.00 76 1012.6
20260503053000 10 0.0 0.0 0.00 0.00 0.00 75 1012.5
20260503051000 10 0.0 0.0 0.00 0.00 0.00 74 1012.6
20260503045959 10 0.0 0.0 0.00 0.00 0.00 73 1012.9
20260503044959 9 0.0 0.0 0.00 0.00 0.00 73 1012.7
20260503043959 9 0.0 0.0 0.00 0.00 0.00 73 1012.5
20260503042959 9 0.0 0.0 0.00 0.00 0.00 71 1012.5
20260503041959 9 0.0 0.0 0.00 0.00 0.00 71 1012.5
20260503040959 10 0.0 0.0 0.00 0.00 0.00 71 1012.5
20260503035959 10 0.0 0.0 0.00 0.00 0.00 70 1012.9
20260503034959 10 0.0 0.0 0.00 0.00 0.00 70 1012.7
20260503033959 10 0.0 0.0 0.00 0.00 0.00 70 1012.8
20260503032959 10 0.0 0.0 0.00 0.00 0.00 70 1012.8
20260503031959 10 0.0 0.0 0.00 0.00 0.00 70 1012.8
20260503030959 10 0.0 0.0 0.00 0.00 0.00 70 1012.9
20260503025959 10 0.0 0.0 0.00 0.00 0.00 70 1012.9
20260503024959 11 0.0 0.0 0.00 0.00 0.00 70 1012.9
20260503023959 11 0.0 0.0 0.00 0.00 0.00 70 1013.0
20260503022959 11 0.0 0.0 0.00 0.00 0.00 70 1013.0
20260503022000 11 0.0 0.0 0.00 0.00 0.00 70 1013.0
20260503021000 11 0.0 0.0 0.00 0.00 0.00 70 1013.1
20260503015959 11 0.0 0.0 0.00 0.00 0.00 69 1013.1
20260503015000 11 0.0 0.0 0.00 0.00 0.00 67 1013.1
20260503014000 11 0.0 0.0 0.00 0.00 0.00 67 1013.1
20260503013000 12 0.0 0.0 0.00 0.00 0.00 67 1013.1
20260503012000 12 0.0 0.0 0.00 0.00 0.00 67 1013.2
20260503011000 12 0.0 0.0 0.00 0.00 0.00 67 1013.2
20260503010000 12 0.0 0.0 0.00 0.00 0.00 67 1013.3
20260503005000 12 0.0 0.0 0.00 0.00 0.00 67 1013.3
20260503004000 12 0.0 0.0 0.00 0.00 0.00 63 1013.4
20260503003000 12 0.0 0.0 0.00 0.00 0.00 63 1013.4
20260503002000 13 0.0 0.0 0.00 0.00 0.00 62 1013.4
20260503001000 13 0.0 0.0 0.00 0.00 0.00 62 1013.5
20260503000000 13 0.0 0.0 0.00 0.00 0.00 62 1013.7
20260502235000 13 0.0 0.0 0.00 0.00 0.00 61 1013.8
20260502234000 13 0.0 0.0 0.00 0.00 0.00 61 1013.8
20260502233000 13 0.0 0.0 0.00 0.00 0.00 60 1013.8
20260502232000 14 0.0 0.0 0.00 0.00 0.00 60 1013.8
20260502231000 14 0.0 0.0 0.00 0.00 0.00 59 1013.9
20260502230000 15 0.0 0.0 0.00 0.00 0.00 59 1014.1
20260502225000 15 0.0 0.0 0.00 0.00 0.00 59 1014.0
20260502224000 15 0.0 0.0 0.00 0.00 0.00 58 1013.9
20260502223000 15 0.0 0.0 0.00 0.00 0.00 58 1014.0
20260502222000 15 0.0 0.0 0.00 0.00 0.00 57 1013.9
20260502221000 16 0.0 0.0 0.00 0.00 0.00 57 1013.9
20260502220000 16 0.0 0.0 0.00 0.00 0.00 56 1013.9
20260502215000 16 0.0 0.0 0.00 0.00 0.00 56 1013.9
20260502214000 16 0.0 0.0 0.00 0.00 0.00 55 1014.0
20260502213000 17 0.0 0.0 0.00 0.00 0.00 55 1014.1
20260502212000 17 0.0 0.0 0.00 0.00 0.00 54 1014.1
20260502211000 17 0.0 0.0 0.00 0.00 0.00 54 1014.2
20260502210000 17 0.0 0.0 0.00 0.00 0.00 50 1014.2
20260502205000 18 0.0 0.0 0.00 0.00 0.00 50 1014.2
20260502204000 18 0.0 0.0 0.00 0.00 0.00 49 1014.4
20260502203000 18 0.0 0.0 0.00 0.00 0.00 48 1014.3
20260502202000 19 0.0 0.0 0.00 0.00 0.00 48 1014.3
20260502201000 19 0.0 0.0 0.00 0.00 0.00 47 1014.5
20260502200000 20 0.0 0.0 0.00 0.00 0.00 46 1014.5
20260502195000 20 0.0 0.0 0.00 0.00 0.00 46 1014.4
20260502194000 20 0.0 0.0 0.00 0.00 0.00 45 1014.5
20260502193000 21 0.0 0.0 0.00 0.00 0.00 44 1014.5
20260502192000 21 0.0 0.0 0.00 0.00 0.00 42 1014.4
20260502191000 22 0.0 0.0 0.00 0.00 0.00 42 1014.4
20260502190000 22 0.0 0.0 0.00 0.00 0.00 40 1014.5
20260502185000 23 0.0 0.0 0.00 0.00 0.00 39 1014.4
20260502184000 23 0.0 0.0 0.00 0.00 0.00 37 1014.3
20260502183000 24 0.0 0.0 0.00 0.00 0.00 36 1014.3
20260502182000 25 0.0 0.0 0.00 0.00 0.00 35 1014.3
20260502181000 25 0.0 0.0 0.00 0.00 0.00 34 1014.4
20260502164000 27 0.0 0.0 0.00 0.00 0.00 26 1014.5
20260502163000 27 0.0 0.0 0.00 0.00 0.00 29 1014.6
20260502162000 28 0.0 0.0 0.00 0.00 0.00 25 1014.7
20260502161000 28 0.0 0.0 0.00 0.00 0.00 25 1014.9
20260502152000 29 0.0 0.0 0.00 0.00 0.00 25 1015.5
20260502151000 29 0.0 0.0 0.00 0.00 0.00 25 1015.6
20260502122959 26 0.0 0.0 0.00 0.00 0.00 32 1017.4
20260502121959 26 0.0 0.0 0.00 0.00 0.00 31 1017.5
20260502120959 26 0.0 0.0 0.00 0.00 0.00 32 1017.6
20260502114959 26 0.0 0.0 0.00 0.00 0.00 32 1017.9
20260502113959 26 0.0 0.0 0.00 0.00 0.00 33 1018.1
20260502113000 25 0.0 0.0 0.00 0.00 0.00 32 1018.4
20260502111959 25 0.0 0.0 0.00 0.00 0.00 32 1018.4
20260502111007 25 0.0 0.0 0.00 0.00 0.00 33 1018.6
20260502105959 24 0.0 0.0 0.00 0.00 0.00 34 1018.7
20260502104959 23 0.0 0.0 0.00 0.00 0.00 34 1018.7
20260502103959 23 0.0 0.0 0.00 0.00 0.00 34 1018.8
20260502102959 23 0.0 0.0 0.00 0.00 0.00 34 1019.0
20260502101959 23 0.0 0.0 0.00 0.00 0.00 35 1019.1
20260502100959 23 0.0 0.0 0.00 0.00 0.00 36 1019.3
20260502090959 20 0.0 0.0 0.00 0.00 0.00 41 1019.9
20260502070003 11 0.0 0.0 0.00 0.00 0.00 64 1020.5
20260502065001 10 0.0 0.0 0.00 0.00 0.00 65 1020.6
20260502064001 10 0.0 0.0 0.00 0.00 0.00 66 1020.5
20260502062959 9 0.0 0.0 0.00 0.00 0.00 66 1020.6
20260502062002 8 0.0 0.0 0.00 0.00 0.00 66 1020.7
20260502060959 8 0.0 0.0 0.00 0.00 0.00 66 1020.8